TimeCST,TemperatureF,Dew PointF,Humidity,Sea Level PressureIn,VisibilityMPH,Wind Direction,Wind SpeedMPH,Gust SpeedMPH,PrecipitationIn,Events,Conditions,WindDirDegrees,DateUTC
12:15 AM,28.4,26.6,93,30.36,10.0,WSW,6.9,-,N/A,,Clear,240,2013-03-02 06:15:00
12:35 AM,28.4,26.6,93,30.37,10.0,Calm,Calm,-,N/A,,Clear,0,2013-03-02 06:35:00
12:55 AM,30.2,28.4,93,30.37,10.0,Calm,Calm,-,N/A,,Clear,0,2013-03-02 06:55:00
1:15 AM,28.4,26.6,93,30.38,7.0,Calm,Calm,-,N/A,,Clear,0,2013-03-02 07:15:00
1:35 AM,28.4,26.6,93,30.39,7.0,WNW,3.5,-,N/A,,Clear,300,2013-03-02 07:35:00
1:55 AM,26.6,23.0,86,30.38,3.0,West,5.8,-,N/A,,Clear,280,2013-03-02 07:55:00
2:15 AM,23.0,21.2,93,30.37,0.5,WSW,4.6,-,N/A,Fog,Light Freezing Fog,250,2013-03-02 08:15:00
2:35 AM,24.8,23.0,93,30.37,2.5,West,4.6,-,N/A,,Clear,270,2013-03-02 08:35:00
2:55 AM,24.8,23.0,93,30.36,3.0,WNW,3.5,-,N/A,,Clear,290,2013-03-02 08:55:00
3:15 AM,24.8,23.0,93,30.35,3.0,West,5.8,-,N/A,,Clear,280,2013-03-02 09:15:00
3:35 AM,23.0,23.0,100,30.35,2.0,WSW,5.8,-,N/A,,Clear,250,2013-03-02 09:35:00
3:55 AM,23.0,21.2,93,30.35,3.0,West,5.8,-,N/A,,Clear,260,2013-03-02 09:55:00
4:15 AM,23.0,21.2,93,30.35,4.0,West,6.9,-,N/A,,Clear,270,2013-03-02 10:15:00
4:35 AM,23.0,21.2,93,30.34,5.0,WSW,6.9,-,N/A,,Clear,240,2013-03-02 10:35:00
4:55 AM,23.0,21.2,93,30.34,7.0,WSW,9.2,-,N/A,,Clear,240,2013-03-02 10:55:00
5:15 AM,23.0,21.2,93,30.35,10.0,SW,9.2,-,N/A,,Clear,230,2013-03-02 11:15:00
5:35 AM,21.2,19.4,93,30.36,10.0,SW,9.2,-,N/A,,Clear,230,2013-03-02 11:35:00
5:55 AM,23.0,21.2,93,30.35,10.0,SW,9.2,-,N/A,,Clear,230,2013-03-02 11:55:00
6:15 AM,23.0,21.2,93,30.34,10.0,SW,5.8,-,N/A,,Clear,220,2013-03-02 12:15:00
6:35 AM,24.8,23.0,93,30.35,10.0,SW,8.1,-,N/A,,Clear,220,2013-03-02 12:35:00
6:55 AM,23.0,21.2,93,30.35,10.0,SSW,9.2,-,N/A,,Clear,210,2013-03-02 12:55:00
7:15 AM,23.0,21.2,93,30.35,7.0,SSW,9.2,-,N/A,,Clear,210,2013-03-02 13:15:00
7:35 AM,24.8,23.0,93,30.35,10.0,SSW,10.4,-,N/A,,Clear,210,2013-03-02 13:35:00
7:55 AM,24.8,23.0,93,30.35,10.0,SW,9.2,-,N/A,,Clear,220,2013-03-02 13:55:00
8:15 AM,26.6,23.0,86,30.35,10.0,SSW,8.1,-,N/A,,Clear,210,2013-03-02 14:15:00
8:35 AM,28.4,26.6,93,30.35,10.0,SW,8.1,-,N/A,,Clear,220,2013-03-02 14:35:00
8:55 AM,30.2,28.4,93,30.34,10.0,SSW,6.9,-,N/A,,Clear,200,2013-03-02 14:55:00
9:15 AM,32.0,30.2,93,30.35,10.0,SW,8.1,-,N/A,,Clear,220,2013-03-02 15:15:00
9:35 AM,32.0,30.2,93,30.34,10.0,SW,9.2,-,N/A,,Mostly Cloudy,220,2013-03-02 15:35:00
9:55 AM,33.8,30.2,87,30.33,10.0,SW,6.9,-,N/A,,Overcast,220,2013-03-02 15:55:00
10:15 AM,35.6,30.2,81,30.34,10.0,SW,5.8,-,N/A,,Overcast,220,2013-03-02 16:15:00
10:35 AM,37.4,30.2,75,30.33,10.0,SSW,5.8,-,N/A,,Overcast,200,2013-03-02 16:35:00
10:55 AM,37.4,30.2,75,30.32,10.0,SSW,6.9,-,N/A,,Overcast,200,2013-03-02 16:55:00
11:15 AM,39.2,32.0,75,30.31,10.0,South,6.9,-,N/A,,Overcast,190,2013-03-02 17:15:00
11:35 AM,41.0,32.0,70,30.31,10.0,South,6.9,-,N/A,,Overcast,190,2013-03-02 17:35:00
11:55 AM,42.8,32.0,66,30.31,10.0,South,6.9,-,N/A,,Overcast,190,2013-03-02 17:55:00
12:15 PM,42.8,32.0,66,30.30,10.0,South,6.9,-,N/A,,Overcast,180,2013-03-02 18:15:00
12:35 PM,42.8,33.8,70,30.29,10.0,South,8.1,-,N/A,,Mostly Cloudy,190,2013-03-02 18:35:00
12:55 PM,44.6,33.8,66,30.28,10.0,SSW,9.2,-,N/A,,Clear,210,2013-03-02 18:55:00
1:15 PM,44.6,33.8,66,30.27,10.0,SSW,8.1,-,N/A,,Clear,200,2013-03-02 19:15:00
1:35 PM,44.6,33.8,66,30.26,10.0,South,6.9,-,N/A,,Clear,190,2013-03-02 19:35:00
1:55 PM,46.4,33.8,62,30.25,10.0,SSW,6.9,-,N/A,,Clear,200,2013-03-02 19:55:00
2:15 PM,46.4,33.8,62,30.24,10.0,SSW,6.9,-,N/A,,Clear,210,2013-03-02 20:15:00
2:35 PM,48.2,35.6,62,30.23,10.0,SSW,6.9,-,N/A,,Clear,210,2013-03-02 20:35:00
2:55 PM,48.2,35.6,62,30.23,10.0,SW,6.9,-,N/A,,Clear,220,2013-03-02 20:55:00
3:15 PM,50.0,33.8,54,30.23,10.0,WSW,8.1,-,N/A,,Clear,250,2013-03-02 21:15:00
3:35 PM,51.8,33.8,50,30.22,10.0,West,8.1,-,N/A,,Clear,260,2013-03-02 21:35:00
3:55 PM,51.8,33.8,50,30.21,10.0,WSW,6.9,-,N/A,,Clear,240,2013-03-02 21:55:00
4:15 PM,51.8,33.8,50,30.20,10.0,SW,3.5,-,N/A,,Clear,220,2013-03-02 22:15:00
4:35 PM,51.8,33.8,50,30.20,10.0,South,3.5,-,N/A,,Clear,180,2013-03-02 22:35:00
4:55 PM,48.2,35.6,62,30.19,10.0,South,4.6,-,N/A,,Clear,170,2013-03-02 22:55:00
5:35 PM,46.4,33.8,62,30.19,10.0,SE,5.8,-,N/A,,Clear,130,2013-03-02 23:35:00
5:55 PM,44.6,33.8,66,30.19,10.0,SE,6.9,-,N/A,,Clear,140,2013-03-02 23:55:00
6:15 PM,42.8,33.8,70,30.18,10.0,SE,8.1,-,N/A,,Clear,130,2013-03-03 00:15:00
6:35 PM,41.0,33.8,76,30.19,10.0,SE,8.1,-,N/A,,Clear,130,2013-03-03 00:35:00
6:55 PM,41.0,32.0,70,30.18,10.0,SE,9.2,-,N/A,,Clear,140,2013-03-03 00:55:00
7:15 PM,41.0,32.0,70,30.18,10.0,SSE,10.4,-,N/A,,Clear,150,2013-03-03 01:15:00
7:35 PM,39.2,32.0,75,30.18,10.0,SE,10.4,-,N/A,,Clear,140,2013-03-03 01:35:00
7:55 PM,41.0,32.0,70,30.18,10.0,SE,8.1,-,N/A,,Clear,130,2013-03-03 01:55:00
8:15 PM,39.2,32.0,75,30.18,10.0,SE,6.9,-,N/A,,Clear,130,2013-03-03 02:15:00
8:35 PM,39.2,32.0,75,30.17,10.0,ESE,8.1,-,N/A,,Clear,120,2013-03-03 02:35:00
8:55 PM,41.0,32.0,70,30.17,10.0,SE,6.9,-,N/A,,Clear,130,2013-03-03 02:55:00
9:15 PM,41.0,32.0,70,30.17,10.0,SSE,9.2,-,N/A,,Clear,150,2013-03-03 03:15:00
9:35 PM,41.0,32.0,70,30.16,10.0,SSE,11.5,-,N/A,,Clear,160,2013-03-03 03:35:00
9:55 PM,41.0,33.8,76,30.16,10.0,South,8.1,-,N/A,,Clear,170,2013-03-03 03:55:00
10:15 PM,41.0,33.8,76,30.16,10.0,SSW,6.9,-,N/A,,Clear,210,2013-03-03 04:15:00
10:35 PM,39.2,32.0,75,30.16,10.0,WSW,5.8,-,N/A,,Clear,240,2013-03-03 04:35:00
10:55 PM,41.0,33.8,76,30.14,10.0,South,10.4,-,N/A,,Clear,180,2013-03-03 04:55:00
11:15 PM,41.0,33.8,76,30.13,10.0,South,9.2,-,N/A,,Clear,190,2013-03-03 05:15:00
11:35 PM,41.0,33.8,76,30.12,10.0,South,11.5,-,N/A,,Clear,180,2013-03-03 05:35:00
11:55 PM,41.0,33.8,76,30.13,10.0,SSW,8.1,-,N/A,,Clear,210,2013-03-03 05:55:00